Location: Chateh
(58.6667°N, 118.6000°W)
Time: 09:27:17
(UTC+00:00)

O/OREOS (USA 219) - Pass Details

Date: 12 December 2023
Orbit: 621 x 646 km, 72.0° (Epoch: 22 May)

Event Time Altitude Azimuth Distance (km) Brightness Sun altitude
Exits shadow 12:13:35 18° 29° (NNE) 1,532 ? -31.8°
Drops below altitude 10° 12:16:16 10° 65° (ENE) 2,015 ? -31.4°
Sets 12:19:08 0° 84° (E) 2,926 ? -31.0°
